[[{"header":{"parameterUnit":"m.s-1","parameterCategory":1,"la1":30.2991,"la2":30.254,"lo1":-89.0895,"lo2":-89.0444,"dy":0.0017,"dx":0.0017,"nx":28,"ny":28,"refTime":"2024-03-09T09:00:00:Z","depth":0,"parameterNumber":2,"parameterNumberName":"U-component_of_WINDS"},"data":[0,0,0,0,0,0,0,0,0,0,0,0,0,0,0,0,0,0,0,0,0,0,0,0,0,0,0,0,0,0,0,0,0,0,0,0,0,0,0,0,0,0,0,0,0,0,0,0,0,0,0,0,0,0,0,0,0,0,0.0791,0.0791,0,0.0753,0.0753,0.0752,0.0762,0.0763,0.0764,0.0765,0.0724,0.0722,0.072,0,0,0,0,0,0,0,0,0,0,0,0,0,0.0873,0.0871,0.0791,0.0791,0.079,0.0753,0.0753,0.0752,0.0762,0.0763,0.0764,0.0765,0.0724,0.0722,0.072,0,0,0,0,0,0,0,0,0,0,0,0,0,0.0836,0.0871,0.0791,0.0791,0.0791,0.0753,0.0753,0.0752,0.0762,0.0763,0.0764,0.0765,0.0725,0.0723,0.072,0.068,0,0,0.0712,0.071,0,0,0,0,0,0,0,0,0.0838,0.0833,0.0792,0.0791,0.079,0.0764,0.0766,0.0728,0.0762,0.0773,0.0765,0.0766,0.0736,0.0733,0.0723,0.0678,0.0677,0.0711,0.071,0.0709,0.0708,0,0,0,0,0,0,0,0.0841,0.0835,0.0776,0.0791,0.079,0.0793,0.0789,0.0759,0.0748,0.0772,0.0773,0.0768,0.0736,0.0725,0.0722,0.0676,0.0711,0.0709,0.0707,0.0706,0.0598,0.0597,0,0,0,0,0,0,0.0844,0.0837,0.0777,0.0775,0.0818,0.079,0.0786,0.0771,0.0749,0.0746,0.0767,0.0769,0.0729,0.0725,0.0721,0.0673,0.0709,0.0706,0.0705,0.0599,0.0597,0.0596,0,0,0,0,0,0,0.0846,0.0839,0.0779,0.0806,0.0799,0.0788,0.0771,0.077,0.0759,0.0745,0.0743,0.0758,0.073,0.0724,0.069,0.0671,0.0705,0.0702,0.06,0.0598,0.0597,0.0576,0,0,0,0,0,0,0.0848,0.0839,0.0824,0.0806,0.0797,0.0749,0.077,0.0768,0.0755,0.0756,0.0736,0.0734,0.0731,0.0694,0.0688,0.0668,0.07,0.0602,0.06,0.0597,0.0579,0.0574,0.057,0,0,0,0,0,0.0851,0.0819,0.0823,0.0816,0.0778,0.0748,0.0743,0.074,0.0753,0.0737,0.0729,0.0735,0.0675,0.0691,0.0683,0.0663,0.0603,0.06,0.0598,0.058,0.0575,0.057,0,0,0,0,0,0,0.0834,0.0817,0.0821,0.0782,0.0767,0.075,0.073,0.0734,0.0715,0.0717,0.0714,0.0709,0.0675,0.0666,0.0684,0.0624,0.0641,0.0636,0.063,0.0625,0.0621,0.0623,0.0698,0,0,0,0,0,0.0826,0.0804,0.079,0.0757,0.0749,0.0741,0.0728,0.0728,0.0711,0.0704,0.0693,0.0677,0.0654,0.0639,0.0618,0.0578,0.0574,0.056,0.0556,0.0553,0.0548,0.0527,0.0521,0.0587,0.0587,0.0587,0,0,0.0809,0.0797,0.0783,0.0754,0.0741,0.0718,0.0735,0.071,0.0692,0.07,0.0667,0.0659,0.0641,0.0603,0.0587,0.0595,0.0529,0.0549,0.0546,0.0544,0.0523,0.0517,0.0511,0.0585,0.0585,0.0585,0,0,0.0766,0.0754,0.0726,0.0714,0.0696,0.0691,0.0684,0.0667,0.0662,0.063,0.0635,0.0615,0.0576,0.0563,0.0551,0.0505,0.0509,0.0498,0.0475,0.0454,0.0449,0.0444,0.0427,0.0421,0.0494,0.0494,0.0494,0,0.0746,0.0711,0.0711,0.0685,0.0672,0.068,0.0651,0.0639,0.0615,0.0605,0.0616,0.0568,0.0556,0.0516,0.0505,0.0495,0.0488,0.0499,0.045,0.0445,0.044,0.0424,0.0418,0.0493,0.0493,0.0493,0.0493,0,0.0689,0.0665,0.0644,0.0621,0.0606,0.0579,0.0574,0.0559,0.056,0.0555,0.0522,0.0508,0.0484,0.0475,0.0476,0.0435,0.0441,0.045,0.0467,0.0433,0.0417,0.0411,0.0491,0.0491,0.0492,0.0492,0,0,0.0631,0.061,0.0602,0.0592,0.0574,0.0555,0.0529,0.0506,0.0493,0.0477,0.0454,0.0422,0.0431,0.0418,0.0418,0.0399,0.0363,0.0411,0.041,0.0402,0.0318,0.031,0.0303,0.0367,0.0366,0.0365,0.0319,0,0.0586,0.0539,0.0539,0.0496,0.0474,0.0482,0.0459,0.0445,0.0439,0.042,0.0414,0.0391,0.0405,0.0397,0.0379,0.0371,0.0346,0.0375,0.0346,0.0345,0.0349,0.0295,0.0287,0.0244,0.0314,0.0312,0.0312,0,0.0525,0.0508,0.0463,0.0449,0.044,0.0419,0.0399,0.038,0.0365,0.0362,0.0348,0.0351,0.0324,0.0344,0.0307,0.0326,0.0315,0.031,0.0308,0.0304,0.0325,0.0289,0.023,0.0224,0.0302,0.0303,0.0304,0,0.0487,0.0453,0.0422,0.0413,0.0395,0.0381,0.0373,0.0359,0.0346,0.0329,0.032,0.03,0.0288,0.0272,0.027,0.0284,0.0233,0.0252,0.0229,0.0229,0.0216,0.0217,0.0154,0.0211,0.0211,0.0211,0.0211,0,0.0436,0.0408,0.0404,0.0385,0.0354,0.0354,0.0324,0.0317,0.0305,0.0285,0.0291,0.0271,0.027,0.025,0.0248,0.0218,0.0213,0.0209,0.0209,0.0208,0.0208,0.0199,0.0202,0.021,0.021,0.021,0.0211,0,0.0387,0.0383,0.035,0.0337,0.0333,0.0311,0.03,0.0281,0.0277,0.0251,0.0245,0.0239,0.0216,0.0212,0.0185,0.0184,0.0148,0.0151,0.0153,0.0153,0.013,0.0132,0.0058,0.0048,0.0113,0.0112,0.0112,0,0.0353,0.0332,0.0317,0.0304,0.0296,0.0275,0.0262,0.0262,0.0248,0.023,0.0214,0.0192,0.0174,0.0137,0.013,0.011,0.0112,0.0088,0.0109,0.0109,0.011,0.0111,0.0109,0.0083,0.0082,0.0082,0.0081,0,0.0294,0.0293,0.0275,0.0255,0.024,0.0225,0.021,0.0199,0.0198,0.0182,0.0159,0.0146,0.0119,0.0097,0.0077,0.0069,0.0074,0.0075,0.0068,0.0066,0.0068,0.0066,0.014,0.0076,0.0077,0.0077,0.0077,0.0077,0.0251,0.0232,0.0219,0.0198,0.0188,0.0175,0.0157,0.0152,0.0133,0.0111,0.0113,0.0087,0.0074,0.0048,0.0039,0.0019,0.0027,0.0018,0.0015,0.0013,0.001,0.0073,0.0016,0.0016,0.0016,0.0016,0.0016,0,0.0191,0.0183,0.0164,0.0144,0.0128,0.0136,0.0121,0.0107,0.0085,0.0072,0.0055,0.0029,0.0009,0.0,-0.002,-0.0034,-0.0032,-0.0039,-0.0039,-0.0041,0.0005,0.0012,-0.0041,-0.0041,-0.0041,-0.0041,-0.0041,-0.0041,0.0157,0.0127,0.0126,0.009,0.0083,0.0059,0.005,0.0038,0.0028,-0.0001,-0.0018,-0.0023,-0.0034,-0.0054,-0.0073,-0.0075,-0.0083,-0.0092,-0.0092,-0.005,-0.0044,-0.0039,-0.0032,-0.0093,-0.0093,-0.0137,-0.0137,-0.0137]},{"header":{"parameterUnit":"m.s-1","parameterCategory":1,"la1":30.2991,"la2":30.254,"lo1":-89.0895,"lo2":-89.0444,"dy":0.0017,"dx":0.0017,"nx":28,"ny":28,"refTime":"2024-03-09T09:00:00:Z","depth":0,"parameterNumber":3,"parameterNumberName":"V-component_of_WINDS"},"data":[0,0,0,0,0,0,0,0,0,0,0,0,0,0,0,0,0,0,0,0,0,0,0,0,0,0,0,0,0,0,0,0,0,0,0,0,0,0,0,0,0,0,0,0,0,0,0,0,0,0,0,0,0,0,0,0,0,0,-6.6739,-6.6741,0,-6.694,-6.6943,-6.6945,-6.6889,-6.6885,-6.6881,-6.6877,-6.708,-6.7089,-6.7098,0,0,0,0,0,0,0,0,0,0,0,0,0,-6.6301,-6.631,-6.6739,-6.6741,-6.6744,-6.694,-6.6943,-6.6945,-6.689,-6.6885,-6.688,-6.6875,-6.7077,-6.7088,-6.7099,0,0,0,0,0,0,0,0,0,0,0,0,0,-6.6496,-6.6312,-6.6738,-6.674,-6.6742,-6.6939,-6.6943,-6.6946,-6.6891,-6.6885,-6.6879,-6.6873,-6.7073,-6.7087,-6.71,-6.7307,0,0,-6.7142,-6.7148,0,0,0,0,0,0,0,0,-6.6485,-6.6512,-6.6737,-6.674,-6.6743,-6.6883,-6.6863,-6.7067,-6.6893,-6.6834,-6.6877,-6.687,-6.7019,-6.7037,-6.7088,-6.7317,-6.7325,-6.7143,-6.7152,-6.7158,-6.7162,0,0,0,0,0,0,0,-6.6471,-6.6503,-6.6818,-6.674,-6.6744,-6.6729,-6.675,-6.6901,-6.6958,-6.6839,-6.6835,-6.686,-6.7019,-6.7075,-6.7092,-6.7328,-6.7143,-6.7155,-6.7164,-6.7169,-6.7735,-6.7742,0,0,0,0,0,0,-6.6456,-6.6492,-6.6812,-6.6824,-6.6596,-6.6742,-6.6765,-6.6844,-6.6957,-6.6968,-6.6865,-6.6857,-6.7054,-6.7076,-6.7099,-6.7349,-6.7158,-6.717,-6.7178,-6.7729,-6.7737,-6.7744,0,0,0,0,0,0,-6.6447,-6.6486,-6.6804,-6.6657,-6.6697,-6.6756,-6.6845,-6.6852,-6.6907,-6.6976,-6.6986,-6.6912,-6.705,-6.708,-6.7256,-6.7355,-6.7177,-6.7189,-6.7721,-6.7731,-6.774,-6.7849,0,0,0,0,0,0,-6.6435,-6.6483,-6.6563,-6.666,-6.6705,-6.6959,-6.6851,-6.686,-6.6931,-6.6922,-6.7023,-6.7033,-6.7048,-6.7236,-6.727,-6.7371,-6.72,-6.7712,-6.7725,-6.7737,-6.7837,-6.7862,-6.7883,0,0,0,0,0,-6.642,-6.6585,-6.6568,-6.6606,-6.6807,-6.6965,-6.699,-6.7005,-6.694,-6.702,-6.7064,-6.703,-6.7338,-6.7254,-6.7292,-6.7399,-6.7706,-6.7721,-6.7736,-6.7827,-6.7857,-6.7883,0,0,0,0,0,0,-6.6498,-6.6598,-6.6579,-6.6782,-6.6865,-6.6955,-6.7058,-6.7037,-6.714,-6.7127,-6.7139,-6.7162,-6.7342,-6.7388,-6.7292,-6.7604,-6.7512,-6.7536,-6.7568,-6.7598,-6.762,-6.7606,-6.7211,0,0,0,0,0,-6.6539,-6.666,-6.674,-6.6911,-6.6954,-6.6999,-6.7068,-6.7072,-6.7158,-6.7193,-6.725,-6.7335,-6.745,-6.7526,-6.7636,-6.7843,-6.7863,-6.7935,-6.7958,-6.7976,-6.7997,-6.8108,-6.8141,-6.7794,-6.7794,-6.7794,0,0,-6.6625,-6.6694,-6.677,-6.6928,-6.6994,-6.7117,-6.7029,-6.7164,-6.7255,-6.7213,-6.7383,-6.7428,-6.7522,-6.7715,-6.7802,-6.7758,-6.8097,-6.7996,-6.801,-6.8021,-6.8127,-6.816,-6.8189,-6.7804,-6.7803,-6.7801,0,0,-6.6844,-6.6909,-6.7058,-6.7125,-6.7226,-6.7254,-6.729,-6.7383,-6.7411,-6.7582,-6.7553,-6.7661,-6.786,-6.7929,-6.799,-6.8233,-6.8205,-6.8269,-6.8389,-6.8498,-6.8525,-6.855,-6.8636,-6.8667,-6.8289,-6.8289,-6.8289,0,-6.6938,-6.7125,-6.7137,-6.7275,-6.7345,-6.7313,-6.7463,-6.7527,-6.7658,-6.7706,-6.7655,-6.7904,-6.7965,-6.8173,-6.8232,-6.8282,-6.8323,-6.8258,-6.8521,-6.8545,-6.8568,-6.8651,-6.8683,-6.8296,-6.8295,-6.8294,-6.8294,0,-6.7234,-6.7364,-6.7472,-6.76,-6.7682,-6.7826,-6.7858,-6.7939,-6.7935,-6.7969,-6.8142,-6.8215,-6.8339,-6.8388,-6.8385,-6.8595,-6.8564,-6.8517,-6.8425,-6.8608,-6.8686,-6.8718,-6.8306,-6.8304,-6.8301,-6.83,0,0,-6.7511,-6.7643,-6.7683,-6.774,-6.7847,-6.7947,-6.8088,-6.821,-6.8279,-6.837,-6.8487,-6.8656,-6.8613,-6.8682,-6.8686,-6.8781,-6.8969,-6.8722,-6.8724,-6.8766,-6.9204,-6.9239,-6.9276,-6.8951,-6.8957,-6.8962,-6.9196,0,-6.774,-6.7989,-6.8004,-6.823,-6.8349,-6.832,-6.8442,-6.852,-6.8554,-6.8659,-6.8696,-6.8816,-6.875,-6.8791,-6.8884,-6.8927,-6.9057,-6.891,-6.9059,-6.9065,-6.9038,-6.9317,-6.9355,-6.9573,-6.9226,-6.9232,-6.9235,0,-6.8041,-6.8142,-6.838,-6.8469,-6.852,-6.863,-6.8742,-6.8844,-6.8931,-6.8949,-6.9026,-6.9016,-6.9158,-6.9061,-6.9257,-6.9156,-6.9217,-6.9247,-6.9256,-6.9271,-6.9162,-6.934,-6.9643,-6.9676,-6.9283,-6.928,-6.9276,0,-6.8219,-6.8413,-6.8581,-6.8631,-6.8739,-6.8817,-6.8866,-6.8947,-6.9019,-6.9117,-6.9164,-6.9276,-6.9338,-6.9424,-6.9445,-6.9372,-6.964,-6.9544,-6.9658,-6.9658,-6.9717,-6.9713,-7.0035,-6.9756,-6.9756,-6.9755,-6.9754,0,-6.8473,-6.862,-6.8662,-6.8765,-6.8928,-6.8942,-6.9102,-6.9145,-6.9218,-6.9328,-6.9308,-6.9411,-6.9431,-6.9538,-6.9554,-6.9714,-6.9741,-6.9759,-6.9762,-6.9762,-6.976,-6.9803,-6.9788,-6.9764,-6.9762,-6.976,-6.9759,0,-6.87,-6.8734,-6.8915,-6.9003,-6.9028,-6.9144,-6.9219,-6.9317,-6.9348,-6.9487,-6.952,-6.9569,-6.9693,-6.9722,-6.987,-6.9881,-7.007,-7.0057,-7.0041,-7.004,-7.0153,-7.0142,-7.0514,-7.0563,-7.0251,-7.0254,-7.0257,0,-6.8861,-6.8973,-6.9073,-6.9146,-6.9198,-6.9315,-6.9389,-6.9406,-6.9484,-6.9591,-6.9676,-6.9798,-6.9897,-7.0097,-7.0145,-7.0257,-7.0248,-7.037,-7.0264,-7.026,-7.025,-7.0243,-7.0254,-7.039,-7.0394,-7.0397,-7.0399,0,-6.9143,-6.9154,-6.9262,-6.9376,-6.9464,-6.9554,-6.964,-6.97,-6.9729,-6.9816,-6.9944,-7.0021,-7.0172,-7.0293,-7.0406,-7.0453,-7.0432,-7.0431,-7.0464,-7.0465,-7.0451,-7.046,-7.0096,-7.0423,-7.0421,-7.0419,-7.0418,-7.0417,-6.9342,-6.944,-6.9526,-6.9646,-6.9712,-6.9792,-6.9889,-6.9932,-7.0039,-7.0165,-7.0167,-7.0307,-7.0389,-7.0538,-7.0593,-7.07,-7.0662,-7.0709,-7.0721,-7.0733,-7.0743,-7.0433,-7.0721,-7.072,-7.072,-7.0719,-7.0719,0,-6.9623,-6.9676,-6.9787,-6.9908,-7.0002,-6.9973,-7.0066,-7.0146,-7.0269,-7.0348,-7.0446,-7.0592,-7.071,-7.0766,-7.0882,-7.0957,-7.095,-7.0987,-7.0982,-7.0993,-7.077,-7.0731,-7.0991,-7.0991,-7.0991,-7.0991,-7.0991,-7.0991,-6.978,-6.9945,-6.9966,-7.0162,-7.0213,-7.0351,-7.0406,-7.048,-7.0543,-7.0707,-7.0805,-7.0841,-7.0911,-7.1032,-7.1137,-7.1151,-7.1194,-7.1237,-7.1245,-7.1036,-7.1009,-7.0982,-7.0945,-7.1246,-7.1246,-7.1459,-7.1461,-7.1462]}]]